Hourly Data Report for September 14, 2020

BRIER ISLAND
NOVA SCOTIA
Current Station Operator: ECCC - MSC

44°17'09.000" N
66°20'48.000" W
15.80 m
8200604
71988
WVU

Download Data

Hourly Data (September 2020)
Hourly Data Report for September 14, 2020
TIME Temp Definition
°C
Dew Point Definition
°C
Rel Hum Definition
%
Wind Dir Definition
10's deg

Wind Spd Definition
km/h
Visibility Definition
km
Stn Press Definition
kPa
Hmdx Definition


Wind Chill Definition


Weather Definition


00:00 15.7 LegendMM LegendMM 17 20   101.25     LegendNANA
01:00 17.0 LegendMM LegendMM 19 17   101.22     LegendNANA
02:00 16.6 16.6 100 18 15   101.17     LegendNANA
03:00 16.7 16.7 100 18 18   101.10     LegendNANA
04:00 17.0 17.0 100 20 19   101.05     LegendNANA
05:00 17.3 17.3 100 20 20   101.03     LegendNANA
06:00 16.9 16.9 100 21 21   101.02     LegendNANA
07:00 16.2 16.2 100 21 21   101.03     LegendNANA
08:00 15.9 LegendMM LegendMM 22 18   101.05     LegendNANA
09:00 16.0 16.0 100 22 17   101.08     LegendNANA
10:00 15.7 15.6 99 24 16   101.11     LegendNANA
11:00 16.1 15.4 96 24 12   101.15     LegendNANA
12:00 15.6 14.7 95 26 16   101.16     LegendNANA
13:00 17.1 15.4 90 25 14   101.16     LegendNANA
14:00 17.3 15.1 87 26 11   101.16     LegendNANA
15:00 17.9 14.1 79 26 14   101.18     LegendNANA
16:00 16.9 12.2 74 29 6   101.21     LegendNANA
17:00 15.6 12.4 81 26 15   101.23     LegendNANA
18:00 14.1 11.6 85 28 21   101.27     LegendNANA
19:00 14.5 9.9 74 29 38   101.37     LegendNANA
20:00 13.8 10.4 80 29 37   101.48     LegendNANA
21:00 13.8 9.9 77 31 33   101.60     LegendNANA
22:00 13.5 10.0 80 31 34   101.67     LegendNANA
23:00 13.5 9.2 75 32 33   101.74     LegendNANA

Notes on Data Quality.

Legend

  • E = Estimated
  • M = Missing
  • NA = Not Available*
  • [empty] = Indicates an unobserved value
Date modified: